A fact sheet with definitions and metadata for this dataset can be found at http://www.stateair.net/web/historical/1/2.html.,,,,,,,,,,
The U.S. Department of State Data Use Statement at http://www.stateair.net/web/historical/1/2.html applies to these and all data available from the Mission China air quality monitoring program.,,,,,,,,,,
,,,,,,,,,,
Site,Parameter,Date (LST),Year,Month,Day,Hour,Value,Unit,Duration,QC Name
Chengdu,PM2.5,1/1/2017 0:00,2017,1,1,0,152,�g/m�,1 Hr,Valid
Chengdu,PM2.5,1/1/2017 1:00,2017,1,1,1,139,�g/m�,1 Hr,Valid
Chengdu,PM2.5,1/1/2017 2:00,2017,1,1,2,168,�g/m�,1 Hr,Valid
Chengdu,PM2.5,1/1/2017 3:00,2017,1,1,3,192,�g/m�,1 Hr,Valid
Chengdu,PM2.5,1/1/2017 4:00,2017,1,1,4,193,�g/m�,1 Hr,Valid
Chengdu,PM2.5,1/1/2017 5:00,2017,1,1,5,181,�g/m�,1 Hr,Valid
Chengdu,PM2.5,1/1/2017 6:00,2017,1,1,6,191,�g/m�,1 Hr,Valid
Chengdu,PM2.5,1/1/2017 7:00,2017,1,1,7,197,�g/m�,1 Hr,Valid
Chengdu,PM2.5,1/1/2017 8:00,2017,1,1,8,179,�g/m�,1 Hr,Valid
Chengdu,PM2.5,1/1/2017 9:00,2017,1,1,9,186,�g/m�,1 Hr,Valid
Chengdu,PM2.5,1/1/2017 10:00,2017,1,1,10,188,�g/m�,1 Hr,Valid
Chengdu,PM2.5,1/1/2017 11:00,2017,1,1,11,175,�g/m�,1 Hr,Valid
Chengdu,PM2.5,1/1/2017 12:00,2017,1,1,12,168,�g/m�,1 Hr,Valid
Chengdu,PM2.5,1/1/2017 13:00,2017,1,1,13,179,�g/m�,1 Hr,Valid
Chengdu,PM2.5,1/1/2017 14:00,2017,1,1,14,198,�g/m�,1 Hr,Valid
Chengdu,PM2.5,1/1/2017 15:00,2017,1,1,15,139,�g/m�,1 Hr,Valid
Chengdu,PM2.5,1/1/2017 16:00,2017,1,1,16,126,�g/m�,1 Hr,Valid
Chengdu,PM2.5,1/1/2017 17:00,2017,1,1,17,129,�g/m�,1 Hr,Valid
Chengdu,PM2.5,1/1/2017 18:00,2017,1,1,18,135,�g/m�,1 Hr,Valid
Chengdu,PM2.5,1/1/2017 19:00,2017,1,1,19,133,�g/m�,1 Hr,Valid
Chengdu,PM2.5,1/1/2017 20:00,2017,1,1,20,131,�g/m�,1 Hr,Valid
Chengdu,PM2.5,1/1/2017 21:00,2017,1,1,21,127,�g/m�,1 Hr,Valid
Chengdu,PM2.5,1/1/2017 22:00,2017,1,1,22,152,�g/m�,1 Hr,Valid
Chengdu,PM2.5,1/1/2017 23:00,2017,1,1,23,175,�g/m�,1 Hr,Valid
Chengdu,PM2.5,1/2/2017 0:00,2017,1,2,0,210,�g/m�,1 Hr,Valid
Chengdu,PM2.5,1/2/2017 1:00,2017,1,2,1,239,�g/m�,1 Hr,Valid
Chengdu,PM2.5,1/2/2017 2:00,2017,1,2,2,216,�g/m�,1 Hr,Valid
Chengdu,PM2.5,1/2/2017 3:00,2017,1,2,3,191,�g/m�,1 Hr,Valid
Chengdu,PM2.5,1/2/2017 4:00,2017,1,2,4,191,�g/m�,1 Hr,Valid
Chengdu,PM2.5,1/2/2017 5:00,2017,1,2,5,187,�g/m�,1 Hr,Valid
Chengdu,PM2.5,1/2/2017 6:00,2017,1,2,6,220,�g/m�,1 Hr,Valid
Chengdu,PM2.5,1/2/2017 7:00,2017,1,2,7,204,�g/m�,1 Hr,Valid
Chengdu,PM2.5,1/2/2017 8:00,2017,1,2,8,196,�g/m�,1 Hr,Valid
Chengdu,PM2.5,1/2/2017 9:00,2017,1,2,9,192,�g/m�,1 Hr,Valid
Chengdu,PM2.5,1/2/2017 10:00,2017,1,2,10,176,�g/m�,1 Hr,Valid
Chengdu,PM2.5,1/2/2017 11:00,2017,1,2,11,194,�g/m�,1 Hr,Valid
Chengdu,PM2.5,1/2/2017 12:00,2017,1,2,12,178,�g/m�,1 Hr,Valid
Chengdu,PM2.5,1/2/2017 13:00,2017,1,2,13,135,�g/m�,1 Hr,Valid
Chengdu,PM2.5,1/2/2017 14:00,2017,1,2,14,126,�g/m�,1 Hr,Valid
Chengdu,PM2.5,1/2/2017 15:00,2017,1,2,15,118,�g/m�,1 Hr,Valid
Chengdu,PM2.5,1/2/2017 16:00,2017,1,2,16,107,�g/m�,1 Hr,Valid
Chengdu,PM2.5,1/2/2017 17:00,2017,1,2,17,97,�g/m�,1 Hr,Valid
Chengdu,PM2.5,1/2/2017 18:00,2017,1,2,18,111,�g/m�,1 Hr,Valid
Chengdu,PM2.5,1/2/2017 19:00,2017,1,2,19,129,�g/m�,1 Hr,Valid
Chengdu,PM2.5,1/2/2017 20:00,2017,1,2,20,140,�g/m�,1 Hr,Valid
Chengdu,PM2.5,1/2/2017 21:00,2017,1,2,21,182,�g/m�,1 Hr,Valid
Chengdu,PM2.5,1/2/2017 22:00,2017,1,2,22,154,�g/m�,1 Hr,Valid
Chengdu,PM2.5,1/2/2017 23:00,2017,1,2,23,161,�g/m�,1 Hr,Valid
Chengdu,PM2.5,1/3/2017 0:00,2017,1,3,0,146,�g/m�,1 Hr,Valid
Chengdu,PM2.5,1/3/2017 1:00,2017,1,3,1,142,�g/m�,1 Hr,Valid
Chengdu,PM2.5,1/3/2017 2:00,2017,1,3,2,153,�g/m�,1 Hr,Valid
Chengdu,PM2.5,1/3/2017 3:00,2017,1,3,3,147,�g/m�,1 Hr,Valid
Chengdu,PM2.5,1/3/2017 4:00,2017,1,3,4,144,�g/m�,1 Hr,Valid
Chengdu,PM2.5,1/3/2017 5:00,2017,1,3,5,139,�g/m�,1 Hr,Valid
Chengdu,PM2.5,1/3/2017 6:00,2017,1,3,6,131,�g/m�,1 Hr,Valid
Chengdu,PM2.5,1/3/2017 7:00,2017,1,3,7,127,�g/m�,1 Hr,Valid
Chengdu,PM2.5,1/3/2017 8:00,2017,1,3,8,138,�g/m�,1 Hr,Valid
Chengdu,PM2.5,1/3/2017 9:00,2017,1,3,9,139,�g/m�,1 Hr,Valid
Chengdu,PM2.5,1/3/2017 10:00,2017,1,3,10,169,�g/m�,1 Hr,Valid
Chengdu,PM2.5,1/3/2017 11:00,2017,1,3,11,186,�g/m�,1 Hr,Valid
Chengdu,PM2.5,1/3/2017 12:00,2017,1,3,12,194,�g/m�,1 Hr,Valid
Chengdu,PM2.5,1/3/2017 13:00,2017,1,3,13,182,�g/m�,1 Hr,Valid
Chengdu,PM2.5,1/3/2017 14:00,2017,1,3,14,185,�g/m�,1 Hr,Valid
Chengdu,PM2.5,1/3/2017 15:00,2017,1,3,15,141,�g/m�,1 Hr,Valid
Chengdu,PM2.5,1/3/2017 16:00,2017,1,3,16,158,�g/m�,1 Hr,Valid
Chengdu,PM2.5,1/3/2017 17:00,2017,1,3,17,152,�g/m�,1 Hr,Valid
Chengdu,PM2.5,1/3/2017 18:00,2017,1,3,18,174,�g/m�,1 Hr,Valid
Chengdu,PM2.5,1/3/2017 19:00,2017,1,3,19,175,�g/m�,1 Hr,Valid
Chengdu,PM2.5,1/3/2017 20:00,2017,1,3,20,207,�g/m�,1 Hr,Valid
Chengdu,PM2.5,1/3/2017 21:00,2017,1,3,21,202,�g/m�,1 Hr,Valid
Chengdu,PM2.5,1/3/2017 22:00,2017,1,3,22,203,�g/m�,1 Hr,Valid
Chengdu,PM2.5,1/3/2017 23:00,2017,1,3,23,198,�g/m�,1 Hr,Valid
Chengdu,PM2.5,1/4/2017 0:00,2017,1,4,0,188,�g/m�,1 Hr,Valid
Chengdu,PM2.5,1/4/2017 1:00,2017,1,4,1,191,�g/m�,1 Hr,Valid
Chengdu,PM2.5,1/4/2017 2:00,2017,1,4,2,194,�g/m�,1 Hr,Valid
Chengdu,PM2.5,1/4/2017 3:00,2017,1,4,3,190,�g/m�,1 Hr,Valid
Chengdu,PM2.5,1/4/2017 4:00,2017,1,4,4,184,�g/m�,1 Hr,Valid
Chengdu,PM2.5,1/4/2017 5:00,2017,1,4,5,184,�g/m�,1 Hr,Valid
Chengdu,PM2.5,1/4/2017 6:00,2017,1,4,6,177,�g/m�,1 Hr,Valid
Chengdu,PM2.5,1/4/2017 7:00,2017,1,4,7,187,�g/m�,1 Hr,Valid
Chengdu,PM2.5,1/4/2017 8:00,2017,1,4,8,200,�g/m�,1 Hr,Valid
Chengdu,PM2.5,1/4/2017 9:00,2017,1,4,9,200,�g/m�,1 Hr,Valid
Chengdu,PM2.5,1/4/2017 10:00,2017,1,4,10,203,�g/m�,1 Hr,Valid
Chengdu,PM2.5,1/4/2017 11:00,2017,1,4,11,203,�g/m�,1 Hr,Valid
Chengdu,PM2.5,1/4/2017 12:00,2017,1,4,12,231,�g/m�,1 Hr,Valid
Chengdu,PM2.5,1/4/2017 13:00,2017,1,4,13,254,�g/m�,1 Hr,Valid
Chengdu,PM2.5,1/4/2017 14:00,2017,1,4,14,256,�g/m�,1 Hr,Valid
Chengdu,PM2.5,1/4/2017 15:00,2017,1,4,15,256,�g/m�,1 Hr,Valid
Chengdu,PM2.5,1/4/2017 16:00,2017,1,4,16,261,�g/m�,1 Hr,Valid
Chengdu,PM2.5,1/4/2017 17:00,2017,1,4,17,246,�g/m�,1 Hr,Valid
Chengdu,PM2.5,1/4/2017 18:00,2017,1,4,18,236,�g/m�,1 Hr,Valid
Chengdu,PM2.5,1/4/2017 19:00,2017,1,4,19,238,�g/m�,1 Hr,Valid
Chengdu,PM2.5,1/4/2017 20:00,2017,1,4,20,289,�g/m�,1 Hr,Valid
Chengdu,PM2.5,1/4/2017 21:00,2017,1,4,21,333,�g/m�,1 Hr,Valid
Chengdu,PM2.5,1/4/2017 22:00,2017,1,4,22,324,�g/m�,1 Hr,Valid
Chengdu,PM2.5,1/4/2017 23:00,2017,1,4,23,324,�g/m�,1 Hr,Valid
Chengdu,PM2.5,1/5/2017 0:00,2017,1,5,0,314,�g/m�,1 Hr,Valid
Chengdu,PM2.5,1/5/2017 1:00,2017,1,5,1,324,�g/m�,1 Hr,Valid
Chengdu,PM2.5,1/5/2017 2:00,2017,1,5,2,316,�g/m�,1 Hr,Valid
Chengdu,PM2.5,1/5/2017 3:00,2017,1,5,3,300,�g/m�,1 Hr,Valid
Chengdu,PM2.5,1/5/2017 4:00,2017,1,5,4,301,�g/m�,1 Hr,Valid
Chengdu,PM2.5,1/5/2017 5:00,2017,1,5,5,299,�g/m�,1 Hr,Valid
Chengdu,PM2.5,1/5/2017 6:00,2017,1,5,6,300,�g/m�,1 Hr,Valid
Chengdu,PM2.5,1/5/2017 7:00,2017,1,5,7,283,�g/m�,1 Hr,Valid
Chengdu,PM2.5,1/5/2017 8:00,2017,1,5,8,272,�g/m�,1 Hr,Valid
Chengdu,PM2.5,1/5/2017 9:00,2017,1,5,9,273,�g/m�,1 Hr,Valid
Chengdu,PM2.5,1/5/2017 10:00,2017,1,5,10,293,�g/m�,1 Hr,Valid
Chengdu,PM2.5,1/5/2017 11:00,2017,1,5,11,322,�g/m�,1 Hr,Valid
Chengdu,PM2.5,1/5/2017 12:00,2017,1,5,12,304,�g/m�,1 Hr,Valid
Chengdu,PM2.5,1/5/2017 13:00,2017,1,5,13,280,�g/m�,1 Hr,Valid
Chengdu,PM2.5,1/5/2017 14:00,2017,1,5,14,266,�g/m�,1 Hr,Valid
Chengdu,PM2.5,1/5/2017 15:00,2017,1,5,15,190,�g/m�,1 Hr,Valid
Chengdu,PM2.5,1/5/2017 16:00,2017,1,5,16,208,�g/m�,1 Hr,Valid
Chengdu,PM2.5,1/5/2017 17:00,2017,1,5,17,-999,�g/m�,1 Hr,Missing
Chengdu,PM2.5,1/5/2017 18:00,2017,1,5,18,197,�g/m�,1 Hr,Valid
Chengdu,PM2.5,1/5/2017 19:00,2017,1,5,19,230,�g/m�,1 Hr,Valid
Chengdu,PM2.5,1/5/2017 20:00,2017,1,5,20,250,�g/m�,1 Hr,Valid
Chengdu,PM2.5,1/5/2017 21:00,2017,1,5,21,253,�g/m�,1 Hr,Valid
Chengdu,PM2.5,1/5/2017 22:00,2017,1,5,22,246,�g/m�,1 Hr,Valid
Chengdu,PM2.5,1/5/2017 23:00,2017,1,5,23,241,�g/m�,1 Hr,Valid
Chengdu,PM2.5,1/6/2017 0:00,2017,1,6,0,215,�g/m�,1 Hr,Valid
Chengdu,PM2.5,1/6/2017 1:00,2017,1,6,1,224,�g/m�,1 Hr,Valid
Chengdu,PM2.5,1/6/2017 2:00,2017,1,6,2,226,�g/m�,1 Hr,Valid
Chengdu,PM2.5,1/6/2017 3:00,2017,1,6,3,217,�g/m�,1 Hr,Valid
Chengdu,PM2.5,1/6/2017 4:00,2017,1,6,4,240,�g/m�,1 Hr,Valid
Chengdu,PM2.5,1/6/2017 5:00,2017,1,6,5,244,�g/m�,1 Hr,Valid
Chengdu,PM2.5,1/6/2017 6:00,2017,1,6,6,230,�g/m�,1 Hr,Valid
Chengdu,PM2.5,1/6/2017 7:00,2017,1,6,7,232,�g/m�,1 Hr,Valid
Chengdu,PM2.5,1/6/2017 8:00,2017,1,6,8,237,�g/m�,1 Hr,Valid
Chengdu,PM2.5,1/6/2017 9:00,2017,1,6,9,243,�g/m�,1 Hr,Valid
Chengdu,PM2.5,1/6/2017 10:00,2017,1,6,10,242,�g/m�,1 Hr,Valid
Chengdu,PM2.5,1/6/2017 11:00,2017,1,6,11,249,�g/m�,1 Hr,Valid
Chengdu,PM2.5,1/6/2017 12:00,2017,1,6,12,247,�g/m�,1 Hr,Valid
Chengdu,PM2.5,1/6/2017 13:00,2017,1,6,13,272,�g/m�,1 Hr,Valid
Chengdu,PM2.5,1/6/2017 14:00,2017,1,6,14,279,�g/m�,1 Hr,Valid
Chengdu,PM2.5,1/6/2017 15:00,2017,1,6,15,276,�g/m�,1 Hr,Valid
Chengdu,PM2.5,1/6/2017 16:00,2017,1,6,16,231,�g/m�,1 Hr,Valid
Chengdu,PM2.5,1/6/2017 17:00,2017,1,6,17,177,�g/m�,1 Hr,Valid
Chengdu,PM2.5,1/6/2017 18:00,2017,1,6,18,154,�g/m�,1 Hr,Valid
Chengdu,PM2.5,1/6/2017 19:00,2017,1,6,19,124,�g/m�,1 Hr,Valid
Chengdu,PM2.5,1/6/2017 20:00,2017,1,6,20,130,�g/m�,1 Hr,Valid
Chengdu,PM2.5,1/6/2017 21:00,2017,1,6,21,129,�g/m�,1 Hr,Valid
Chengdu,PM2.5,1/6/2017 22:00,2017,1,6,22,138,�g/m�,1 Hr,Valid
Chengdu,PM2.5,1/6/2017 23:00,2017,1,6,23,133,�g/m�,1 Hr,Valid
Chengdu,PM2.5,1/7/2017 0:00,2017,1,7,0,126,�g/m�,1 Hr,Valid
Chengdu,PM2.5,1/7/2017 1:00,2017,1,7,1,124,�g/m�,1 Hr,Valid
Chengdu,PM2.5,1/7/2017 2:00,2017,1,7,2,126,�g/m�,1 Hr,Valid
Chengdu,PM2.5,1/7/2017 3:00,2017,1,7,3,108,�g/m�,1 Hr,Valid
Chengdu,PM2.5,1/7/2017 4:00,2017,1,7,4,79,�g/m�,1 Hr,Valid
Chengdu,PM2.5,1/7/2017 5:00,2017,1,7,5,49,�g/m�,1 Hr,Valid
Chengdu,PM2.5,1/7/2017 6:00,2017,1,7,6,40,�g/m�,1 Hr,Valid
Chengdu,PM2.5,1/7/2017 7:00,2017,1,7,7,34,�g/m�,1 Hr,Valid
Chengdu,PM2.5,1/7/2017 8:00,2017,1,7,8,34,�g/m�,1 Hr,Valid
Chengdu,PM2.5,1/7/2017 9:00,2017,1,7,9,43,�g/m�,1 Hr,Valid
Chengdu,PM2.5,1/7/2017 10:00,2017,1,7,10,52,�g/m�,1 Hr,Valid
Chengdu,PM2.5,1/7/2017 11:00,2017,1,7,11,53,�g/m�,1 Hr,Valid
Chengdu,PM2.5,1/7/2017 12:00,2017,1,7,12,64,�g/m�,1 Hr,Valid
Chengdu,PM2.5,1/7/2017 13:00,2017,1,7,13,61,�g/m�,1 Hr,Valid
Chengdu,PM2.5,1/7/2017 14:00,2017,1,7,14,68,�g/m�,1 Hr,Valid
Chengdu,PM2.5,1/7/2017 15:00,2017,1,7,15,72,�g/m�,1 Hr,Valid
Chengdu,PM2.5,1/7/2017 16:00,2017,1,7,16,76,�g/m�,1 Hr,Valid
Chengdu,PM2.5,1/7/2017 17:00,2017,1,7,17,79,�g/m�,1 Hr,Valid
Chengdu,PM2.5,1/7/2017 18:00,2017,1,7,18,85,�g/m�,1 Hr,Valid
Chengdu,PM2.5,1/7/2017 19:00,2017,1,7,19,87,�g/m�,1 Hr,Valid
Chengdu,PM2.5,1/7/2017 20:00,2017,1,7,20,87,�g/m�,1 Hr,Valid
Chengdu,PM2.5,1/7/2017 21:00,2017,1,7,21,92,�g/m�,1 Hr,Valid
Chengdu,PM2.5,1/7/2017 22:00,2017,1,7,22,93,�g/m�,1 Hr,Valid
Chengdu,PM2.5,1/7/2017 23:00,2017,1,7,23,90,�g/m�,1 Hr,Valid
Chengdu,PM2.5,1/8/2017 0:00,2017,1,8,0,81,�g/m�,1 Hr,Valid
Chengdu,PM2.5,1/8/2017 1:00,2017,1,8,1,86,�g/m�,1 Hr,Valid
Chengdu,PM2.5,1/8/2017 2:00,2017,1,8,2,88,�g/m�,1 Hr,Valid
Chengdu,PM2.5,1/8/2017 3:00,2017,1,8,3,93,�g/m�,1 Hr,Valid
Chengdu,PM2.5,1/8/2017 4:00,2017,1,8,4,94,�g/m�,1 Hr,Valid
Chengdu,PM2.5,1/8/2017 5:00,2017,1,8,5,80,�g/m�,1 Hr,Valid
Chengdu,PM2.5,1/8/2017 6:00,2017,1,8,6,81,�g/m�,1 Hr,Valid
Chengdu,PM2.5,1/8/2017 7:00,2017,1,8,7,97,�g/m�,1 Hr,Valid
Chengdu,PM2.5,1/8/2017 8:00,2017,1,8,8,96,�g/m�,1 Hr,Valid
Chengdu,PM2.5,1/8/2017 9:00,2017,1,8,9,90,�g/m�,1 Hr,Valid
Chengdu,PM2.5,1/8/2017 10:00,2017,1,8,10,95,�g/m�,1 Hr,Valid
Chengdu,PM2.5,1/8/2017 11:00,2017,1,8,11,82,�g/m�,1 Hr,Valid
Chengdu,PM2.5,1/8/2017 12:00,2017,1,8,12,75,�g/m�,1 Hr,Valid
Chengdu,PM2.5,1/8/2017 13:00,2017,1,8,13,84,�g/m�,1 Hr,Valid
Chengdu,PM2.5,1/8/2017 14:00,2017,1,8,14,78,�g/m�,1 Hr,Valid
Chengdu,PM2.5,1/8/2017 15:00,2017,1,8,15,90,�g/m�,1 Hr,Valid
Chengdu,PM2.5,1/8/2017 16:00,2017,1,8,16,92,�g/m�,1 Hr,Valid
Chengdu,PM2.5,1/8/2017 17:00,2017,1,8,17,83,�g/m�,1 Hr,Valid
Chengdu,PM2.5,1/8/2017 18:00,2017,1,8,18,87,�g/m�,1 Hr,Valid
Chengdu,PM2.5,1/8/2017 19:00,2017,1,8,19,96,�g/m�,1 Hr,Valid
Chengdu,PM2.5,1/8/2017 20:00,2017,1,8,20,108,�g/m�,1 Hr,Valid
Chengdu,PM2.5,1/8/2017 21:00,2017,1,8,21,104,�g/m�,1 Hr,Valid
Chengdu,PM2.5,1/8/2017 22:00,2017,1,8,22,91,�g/m�,1 Hr,Valid
Chengdu,PM2.5,1/8/2017 23:00,2017,1,8,23,95,�g/m�,1 Hr,Valid
Chengdu,PM2.5,1/9/2017 0:00,2017,1,9,0,87,�g/m�,1 Hr,Valid
Chengdu,PM2.5,1/9/2017 1:00,2017,1,9,1,87,�g/m�,1 Hr,Valid
Chengdu,PM2.5,1/9/2017 2:00,2017,1,9,2,97,�g/m�,1 Hr,Valid
Chengdu,PM2.5,1/9/2017 3:00,2017,1,9,3,93,�g/m�,1 Hr,Valid
Chengdu,PM2.5,1/9/2017 4:00,2017,1,9,4,91,�g/m�,1 Hr,Valid
Chengdu,PM2.5,1/9/2017 5:00,2017,1,9,5,96,�g/m�,1 Hr,Valid
Chengdu,PM2.5,1/9/2017 6:00,2017,1,9,6,81,�g/m�,1 Hr,Valid
Chengdu,PM2.5,1/9/2017 7:00,2017,1,9,7,78,�g/m�,1 Hr,Valid
Chengdu,PM2.5,1/9/2017 8:00,2017,1,9,8,72,�g/m�,1 Hr,Valid
Chengdu,PM2.5,1/9/2017 9:00,2017,1,9,9,57,�g/m�,1 Hr,Valid
Chengdu,PM2.5,1/9/2017 10:00,2017,1,9,10,56,�g/m�,1 Hr,Valid
Chengdu,PM2.5,1/9/2017 11:00,2017,1,9,11,60,�g/m�,1 Hr,Valid
Chengdu,PM2.5,1/9/2017 12:00,2017,1,9,12,59,�g/m�,1 Hr,Valid
Chengdu,PM2.5,1/9/2017 13:00,2017,1,9,13,80,�g/m�,1 Hr,Valid
Chengdu,PM2.5,1/9/2017 14:00,2017,1,9,14,55,�g/m�,1 Hr,Valid
Chengdu,PM2.5,1/9/2017 15:00,2017,1,9,15,73,�g/m�,1 Hr,Valid
Chengdu,PM2.5,1/9/2017 16:00,2017,1,9,16,42,�g/m�,1 Hr,Valid
Chengdu,PM2.5,1/9/2017 17:00,2017,1,9,17,40,�g/m�,1 Hr,Valid
Chengdu,PM2.5,1/9/2017 18:00,2017,1,9,18,40,�g/m�,1 Hr,Valid
Chengdu,PM2.5,1/9/2017 19:00,2017,1,9,19,36,�g/m�,1 Hr,Valid
Chengdu,PM2.5,1/9/2017 20:00,2017,1,9,20,32,�g/m�,1 Hr,Valid
Chengdu,PM2.5,1/9/2017 21:00,2017,1,9,21,27,�g/m�,1 Hr,Valid
Chengdu,PM2.5,1/9/2017 22:00,2017,1,9,22,26,�g/m�,1 Hr,Valid
Chengdu,PM2.5,1/9/2017 23:00,2017,1,9,23,29,�g/m�,1 Hr,Valid
Chengdu,PM2.5,1/10/2017 0:00,2017,1,10,0,27,�g/m�,1 Hr,Valid
Chengdu,PM2.5,1/10/2017 1:00,2017,1,10,1,32,�g/m�,1 Hr,Valid
Chengdu,PM2.5,1/10/2017 2:00,2017,1,10,2,27,�g/m�,1 Hr,Valid
Chengdu,PM2.5,1/10/2017 3:00,2017,1,10,3,24,�g/m�,1 Hr,Valid
Chengdu,PM2.5,1/10/2017 4:00,2017,1,10,4,33,�g/m�,1 Hr,Valid
Chengdu,PM2.5,1/10/2017 5:00,2017,1,10,5,31,�g/m�,1 Hr,Valid
Chengdu,PM2.5,1/10/2017 6:00,2017,1,10,6,34,�g/m�,1 Hr,Valid
Chengdu,PM2.5,1/10/2017 7:00,2017,1,10,7,30,�g/m�,1 Hr,Valid
Chengdu,PM2.5,1/10/2017 8:00,2017,1,10,8,34,�g/m�,1 Hr,Valid
Chengdu,PM2.5,1/10/2017 9:00,2017,1,10,9,39,�g/m�,1 Hr,Valid
Chengdu,PM2.5,1/10/2017 10:00,2017,1,10,10,38,�g/m�,1 Hr,Valid
Chengdu,PM2.5,1/10/2017 11:00,2017,1,10,11,40,�g/m�,1 Hr,Valid
Chengdu,PM2.5,1/10/2017 12:00,2017,1,10,12,39,�g/m�,1 Hr,Valid
Chengdu,PM2.5,1/10/2017 13:00,2017,1,10,13,39,�g/m�,1 Hr,Valid
Chengdu,PM2.5,1/10/2017 14:00,2017,1,10,14,40,�g/m�,1 Hr,Valid
Chengdu,PM2.5,1/10/2017 15:00,2017,1,10,15,-999,�g/m�,1 Hr,Missing
Chengdu,PM2.5,1/10/2017 16:00,2017,1,10,16,-999,�g/m�,1 Hr,Missing
Chengdu,PM2.5,1/10/2017 17:00,2017,1,10,17,47,�g/m�,1 Hr,Valid
Chengdu,PM2.5,1/10/2017 18:00,2017,1,10,18,41,�g/m�,1 Hr,Valid
Chengdu,PM2.5,1/10/2017 19:00,2017,1,10,19,38,�g/m�,1 Hr,Valid
Chengdu,PM2.5,1/10/2017 20:00,2017,1,10,20,40,�g/m�,1 Hr,Valid
Chengdu,PM2.5,1/10/2017 21:00,2017,1,10,21,41,�g/m�,1 Hr,Valid
Chengdu,PM2.5,1/10/2017 22:00,2017,1,10,22,46,�g/m�,1 Hr,Valid
Chengdu,PM2.5,1/10/2017 23:00,2017,1,10,23,43,�g/m�,1 Hr,Valid
Chengdu,PM2.5,1/11/2017 0:00,2017,1,11,0,44,�g/m�,1 Hr,Valid
Chengdu,PM2.5,1/11/2017 1:00,2017,1,11,1,37,�g/m�,1 Hr,Valid
Chengdu,PM2.5,1/11/2017 2:00,2017,1,11,2,37,�g/m�,1 Hr,Valid
Chengdu,PM2.5,1/11/2017 3:00,2017,1,11,3,34,�g/m�,1 Hr,Valid
Chengdu,PM2.5,1/11/2017 4:00,2017,1,11,4,39,�g/m�,1 Hr,Valid
Chengdu,PM2.5,1/11/2017 5:00,2017,1,11,5,49,�g/m�,1 Hr,Valid
Chengdu,PM2.5,1/11/2017 6:00,2017,1,11,6,49,�g/m�,1 Hr,Valid
Chengdu,PM2.5,1/11/2017 7:00,2017,1,11,7,37,�g/m�,1 Hr,Valid
Chengdu,PM2.5,1/11/2017 8:00,2017,1,11,8,40,�g/m�,1 Hr,Valid
Chengdu,PM2.5,1/11/2017 9:00,2017,1,11,9,42,�g/m�,1 Hr,Valid
Chengdu,PM2.5,1/11/2017 10:00,2017,1,11,10,38,�g/m�,1 Hr,Valid
Chengdu,PM2.5,1/11/2017 11:00,2017,1,11,11,37,�g/m�,1 Hr,Valid
Chengdu,PM2.5,1/11/2017 12:00,2017,1,11,12,37,�g/m�,1 Hr,Valid
Chengdu,PM2.5,1/11/2017 13:00,2017,1,11,13,39,�g/m�,1 Hr,Valid
Chengdu,PM2.5,1/11/2017 14:00,2017,1,11,14,41,�g/m�,1 Hr,Valid
Chengdu,PM2.5,1/11/2017 15:00,2017,1,11,15,42,�g/m�,1 Hr,Valid
Chengdu,PM2.5,1/11/2017 16:00,2017,1,11,16,39,�g/m�,1 Hr,Valid
Chengdu,PM2.5,1/11/2017 17:00,2017,1,11,17,46,�g/m�,1 Hr,Valid
Chengdu,PM2.5,1/11/2017 18:00,2017,1,11,18,43,�g/m�,1 Hr,Valid
Chengdu,PM2.5,1/11/2017 19:00,2017,1,11,19,42,�g/m�,1 Hr,Valid
Chengdu,PM2.5,1/11/2017 20:00,2017,1,11,20,53,�g/m�,1 Hr,Valid
Chengdu,PM2.5,1/11/2017 21:00,2017,1,11,21,47,�g/m�,1 Hr,Valid
Chengdu,PM2.5,1/11/2017 22:00,2017,1,11,22,82,�g/m�,1 Hr,Valid
Chengdu,PM2.5,1/11/2017 23:00,2017,1,11,23,97,�g/m�,1 Hr,Valid
Chengdu,PM2.5,1/12/2017 0:00,2017,1,12,0,95,�g/m�,1 Hr,Valid
Chengdu,PM2.5,1/12/2017 1:00,2017,1,12,1,82,�g/m�,1 Hr,Valid
Chengdu,PM2.5,1/12/2017 2:00,2017,1,12,2,79,�g/m�,1 Hr,Valid
Chengdu,PM2.5,1/12/2017 3:00,2017,1,12,3,78,�g/m�,1 Hr,Valid
Chengdu,PM2.5,1/12/2017 4:00,2017,1,12,4,63,�g/m�,1 Hr,Valid
Chengdu,PM2.5,1/12/2017 5:00,2017,1,12,5,60,�g/m�,1 Hr,Valid
Chengdu,PM2.5,1/12/2017 6:00,2017,1,12,6,65,�g/m�,1 Hr,Valid
Chengdu,PM2.5,1/12/2017 7:00,2017,1,12,7,67,�g/m�,1 Hr,Valid
Chengdu,PM2.5,1/12/2017 8:00,2017,1,12,8,62,�g/m�,1 Hr,Valid
Chengdu,PM2.5,1/12/2017 9:00,2017,1,12,9,57,�g/m�,1 Hr,Valid
Chengdu,PM2.5,1/12/2017 10:00,2017,1,12,10,52,�g/m�,1 Hr,Valid
Chengdu,PM2.5,1/12/2017 11:00,2017,1,12,11,57,�g/m�,1 Hr,Valid
Chengdu,PM2.5,1/12/2017 12:00,2017,1,12,12,58,�g/m�,1 Hr,Valid
Chengdu,PM2.5,1/12/2017 13:00,2017,1,12,13,44,�g/m�,1 Hr,Valid
Chengdu,PM2.5,1/12/2017 14:00,2017,1,12,14,47,�g/m�,1 Hr,Valid
Chengdu,PM2.5,1/12/2017 15:00,2017,1,12,15,48,�g/m�,1 Hr,Valid
Chengdu,PM2.5,1/12/2017 16:00,2017,1,12,16,42,�g/m�,1 Hr,Valid
Chengdu,PM2.5,1/12/2017 17:00,2017,1,12,17,43,�g/m�,1 Hr,Valid
Chengdu,PM2.5,1/12/2017 18:00,2017,1,12,18,38,�g/m�,1 Hr,Valid
Chengdu,PM2.5,1/12/2017 19:00,2017,1,12,19,58,�g/m�,1 Hr,Valid
Chengdu,PM2.5,1/12/2017 20:00,2017,1,12,20,59,�g/m�,1 Hr,Valid
Chengdu,PM2.5,1/12/2017 21:00,2017,1,12,21,59,�g/m�,1 Hr,Valid
Chengdu,PM2.5,1/12/2017 22:00,2017,1,12,22,77,�g/m�,1 Hr,Valid
Chengdu,PM2.5,1/12/2017 23:00,2017,1,12,23,70,�g/m�,1 Hr,Valid
Chengdu,PM2.5,1/13/2017 0:00,2017,1,13,0,72,�g/m�,1 Hr,Valid
Chengdu,PM2.5,1/13/2017 1:00,2017,1,13,1,77,�g/m�,1 Hr,Valid
Chengdu,PM2.5,1/13/2017 2:00,2017,1,13,2,70,�g/m�,1 Hr,Valid
Chengdu,PM2.5,1/13/2017 3:00,2017,1,13,3,70,�g/m�,1 Hr,Valid
Chengdu,PM2.5,1/13/2017 4:00,2017,1,13,4,60,�g/m�,1 Hr,Valid
Chengdu,PM2.5,1/13/2017 5:00,2017,1,13,5,58,�g/m�,1 Hr,Valid
Chengdu,PM2.5,1/13/2017 6:00,2017,1,13,6,64,�g/m�,1 Hr,Valid
Chengdu,PM2.5,1/13/2017 7:00,2017,1,13,7,56,�g/m�,1 Hr,Valid
Chengdu,PM2.5,1/13/2017 8:00,2017,1,13,8,62,�g/m�,1 Hr,Valid
Chengdu,PM2.5,1/13/2017 9:00,2017,1,13,9,63,�g/m�,1 Hr,Valid
Chengdu,PM2.5,1/13/2017 10:00,2017,1,13,10,66,�g/m�,1 Hr,Valid
Chengdu,PM2.5,1/13/2017 11:00,2017,1,13,11,57,�g/m�,1 Hr,Valid
Chengdu,PM2.5,1/13/2017 12:00,2017,1,13,12,59,�g/m�,1 Hr,Valid
Chengdu,PM2.5,1/13/2017 13:00,2017,1,13,13,50,�g/m�,1 Hr,Valid
Chengdu,PM2.5,1/13/2017 14:00,2017,1,13,14,52,�g/m�,1 Hr,Valid
Chengdu,PM2.5,1/13/2017 15:00,2017,1,13,15,62,�g/m�,1 Hr,Valid
Chengdu,PM2.5,1/13/2017 16:00,2017,1,13,16,60,�g/m�,1 Hr,Valid
Chengdu,PM2.5,1/13/2017 17:00,2017,1,13,17,59,�g/m�,1 Hr,Valid
Chengdu,PM2.5,1/13/2017 18:00,2017,1,13,18,60,�g/m�,1 Hr,Valid
Chengdu,PM2.5,1/13/2017 19:00,2017,1,13,19,74,�g/m�,1 Hr,Valid
Chengdu,PM2.5,1/13/2017 20:00,2017,1,13,20,72,�g/m�,1 Hr,Valid
Chengdu,PM2.5,1/13/2017 21:00,2017,1,13,21,65,�g/m�,1 Hr,Valid
Chengdu,PM2.5,1/13/2017 22:00,2017,1,13,22,70,�g/m�,1 Hr,Valid
Chengdu,PM2.5,1/13/2017 23:00,2017,1,13,23,66,�g/m�,1 Hr,Valid
Chengdu,PM2.5,1/14/2017 0:00,2017,1,14,0,64,�g/m�,1 Hr,Valid
Chengdu,PM2.5,1/14/2017 1:00,2017,1,14,1,69,�g/m�,1 Hr,Valid
Chengdu,PM2.5,1/14/2017 2:00,2017,1,14,2,75,�g/m�,1 Hr,Valid
Chengdu,PM2.5,1/14/2017 3:00,2017,1,14,3,70,�g/m�,1 Hr,Valid
Chengdu,PM2.5,1/14/2017 4:00,2017,1,14,4,80,�g/m�,1 Hr,Valid
Chengdu,PM2.5,1/14/2017 5:00,2017,1,14,5,78,�g/m�,1 Hr,Valid
Chengdu,PM2.5,1/14/2017 6:00,2017,1,14,6,76,�g/m�,1 Hr,Valid
Chengdu,PM2.5,1/14/2017 7:00,2017,1,14,7,78,�g/m�,1 Hr,Valid
Chengdu,PM2.5,1/14/2017 8:00,2017,1,14,8,79,�g/m�,1 Hr,Valid
Chengdu,PM2.5,1/14/2017 9:00,2017,1,14,9,90,�g/m�,1 Hr,Valid
Chengdu,PM2.5,1/14/2017 10:00,2017,1,14,10,80,�g/m�,1 Hr,Valid
Chengdu,PM2.5,1/14/2017 11:00,2017,1,14,11,69,�g/m�,1 Hr,Valid
Chengdu,PM2.5,1/14/2017 12:00,2017,1,14,12,65,�g/m�,1 Hr,Valid
Chengdu,PM2.5,1/14/2017 13:00,2017,1,14,13,64,�g/m�,1 Hr,Valid
Chengdu,PM2.5,1/14/2017 14:00,2017,1,14,14,80,�g/m�,1 Hr,Valid
Chengdu,PM2.5,1/14/2017 15:00,2017,1,14,15,87,�g/m�,1 Hr,Valid
Chengdu,PM2.5,1/14/2017 16:00,2017,1,14,16,98,�g/m�,1 Hr,Valid
Chengdu,PM2.5,1/14/2017 17:00,2017,1,14,17,92,�g/m�,1 Hr,Valid
Chengdu,PM2.5,1/14/2017 18:00,2017,1,14,18,96,�g/m�,1 Hr,Valid
Chengdu,PM2.5,1/14/2017 19:00,2017,1,14,19,105,�g/m�,1 Hr,Valid
Chengdu,PM2.5,1/14/2017 20:00,2017,1,14,20,102,�g/m�,1 Hr,Valid
Chengdu,PM2.5,1/14/2017 21:00,2017,1,14,21,100,�g/m�,1 Hr,Valid
Chengdu,PM2.5,1/14/2017 22:00,2017,1,14,22,102,�g/m�,1 Hr,Valid
Chengdu,PM2.5,1/14/2017 23:00,2017,1,14,23,116,�g/m�,1 Hr,Valid
Chengdu,PM2.5,1/15/2017 0:00,2017,1,15,0,116,�g/m�,1 Hr,Valid
Chengdu,PM2.5,1/15/2017 1:00,2017,1,15,1,114,�g/m�,1 Hr,Valid
Chengdu,PM2.5,1/15/2017 2:00,2017,1,15,2,125,�g/m�,1 Hr,Valid
Chengdu,PM2.5,1/15/2017 3:00,2017,1,15,3,118,�g/m�,1 Hr,Valid
Chengdu,PM2.5,1/15/2017 4:00,2017,1,15,4,125,�g/m�,1 Hr,Valid
Chengdu,PM2.5,1/15/2017 5:00,2017,1,15,5,133,�g/m�,1 Hr,Valid
Chengdu,PM2.5,1/15/2017 6:00,2017,1,15,6,144,�g/m�,1 Hr,Valid
Chengdu,PM2.5,1/15/2017 7:00,2017,1,15,7,142,�g/m�,1 Hr,Valid
Chengdu,PM2.5,1/15/2017 8:00,2017,1,15,8,151,�g/m�,1 Hr,Valid
Chengdu,PM2.5,1/15/2017 9:00,2017,1,15,9,166,�g/m�,1 Hr,Valid
Chengdu,PM2.5,1/15/2017 10:00,2017,1,15,10,158,�g/m�,1 Hr,Valid
Chengdu,PM2.5,1/15/2017 11:00,2017,1,15,11,151,�g/m�,1 Hr,Valid
Chengdu,PM2.5,1/15/2017 12:00,2017,1,15,12,154,�g/m�,1 Hr,Valid
Chengdu,PM2.5,1/15/2017 13:00,2017,1,15,13,130,�g/m�,1 Hr,Valid
Chengdu,PM2.5,1/15/2017 14:00,2017,1,15,14,121,�g/m�,1 Hr,Valid
Chengdu,PM2.5,1/15/2017 15:00,2017,1,15,15,162,�g/m�,1 Hr,Valid
Chengdu,PM2.5,1/15/2017 16:00,2017,1,15,16,154,�g/m�,1 Hr,Valid
Chengdu,PM2.5,1/15/2017 17:00,2017,1,15,17,157,�g/m�,1 Hr,Valid
Chengdu,PM2.5,1/15/2017 18:00,2017,1,15,18,145,�g/m�,1 Hr,Valid
Chengdu,PM2.5,1/15/2017 19:00,2017,1,15,19,124,�g/m�,1 Hr,Valid
Chengdu,PM2.5,1/15/2017 20:00,2017,1,15,20,122,�g/m�,1 Hr,Valid
Chengdu,PM2.5,1/15/2017 21:00,2017,1,15,21,125,�g/m�,1 Hr,Valid
Chengdu,PM2.5,1/15/2017 22:00,2017,1,15,22,133,�g/m�,1 Hr,Valid
Chengdu,PM2.5,1/15/2017 23:00,2017,1,15,23,128,�g/m�,1 Hr,Valid
Chengdu,PM2.5,1/16/2017 0:00,2017,1,16,0,118,�g/m�,1 Hr,Valid
Chengdu,PM2.5,1/16/2017 1:00,2017,1,16,1,113,�g/m�,1 Hr,Valid
Chengdu,PM2.5,1/16/2017 2:00,2017,1,16,2,107,�g/m�,1 Hr,Valid
Chengdu,PM2.5,1/16/2017 3:00,2017,1,16,3,94,�g/m�,1 Hr,Valid
Chengdu,PM2.5,1/16/2017 4:00,2017,1,16,4,98,�g/m�,1 Hr,Valid
Chengdu,PM2.5,1/16/2017 5:00,2017,1,16,5,94,�g/m�,1 Hr,Valid
Chengdu,PM2.5,1/16/2017 6:00,2017,1,16,6,94,�g/m�,1 Hr,Valid
Chengdu,PM2.5,1/16/2017 7:00,2017,1,16,7,95,�g/m�,1 Hr,Valid
Chengdu,PM2.5,1/16/2017 8:00,2017,1,16,8,95,�g/m�,1 Hr,Valid
Chengdu,PM2.5,1/16/2017 9:00,2017,1,16,9,98,�g/m�,1 Hr,Valid
Chengdu,PM2.5,1/16/2017 10:00,2017,1,16,10,105,�g/m�,1 Hr,Valid
Chengdu,PM2.5,1/16/2017 11:00,2017,1,16,11,99,�g/m�,1 Hr,Valid
Chengdu,PM2.5,1/16/2017 12:00,2017,1,16,12,99,�g/m�,1 Hr,Valid
Chengdu,PM2.5,1/16/2017 13:00,2017,1,16,13,100,�g/m�,1 Hr,Valid
Chengdu,PM2.5,1/16/2017 14:00,2017,1,16,14,88,�g/m�,1 Hr,Valid
Chengdu,PM2.5,1/16/2017 15:00,2017,1,16,15,91,�g/m�,1 Hr,Valid
Chengdu,PM2.5,1/16/2017 16:00,2017,1,16,16,88,�g/m�,1 Hr,Valid